Time,TemperatureF,DewpointF,PressureIn,WindDirection,WindDirectionDegrees,WindSpeedMPH,WindSpeedGustMPH,Humidity,HourlyPrecipIn,Conditions,Clouds,dailyrainin,SoftwareType,DateUTC
2013-08-06 00:02:00,73.3,58.6,29.84,NNW,345,0.0,0.0,60,0.00,CLR,,0.00,WeatherDisplay:10.37,2013-08-06 07:02:00,
2013-08-06 00:07:00,73.2,59.4,29.84,NNW,345,0.0,0.0,62,0.00,CLR,,0.00,WeatherDisplay:10.37,2013-08-06 07:07:00,
2013-08-06 00:12:00,73.1,58.8,29.84,NNW,345,0.0,0.0,61,0.00,CLR,,0.00,WeatherDisplay:10.37,2013-08-06 07:12:00,
2013-08-06 00:17:00,72.8,58.6,29.84,NNW,345,0.0,0.0,61,0.00,CLR,,0.00,WeatherDisplay:10.37,2013-08-06 07:17:00,
2013-08-06 00:22:00,72.6,58.8,29.84,NNW,345,0.0,0.0,62,0.00,CLR,,0.00,WeatherDisplay:10.37,2013-08-06 07:22:00,
2013-08-06 00:27:00,72.4,59.5,29.84,NNW,345,0.0,0.0,64,0.00,CLR,,0.00,WeatherDisplay:10.37,2013-08-06 07:27:00,
2013-08-06 00:32:00,72.2,58.9,29.84,NNW,345,0.0,0.0,63,0.00,CLR,,0.00,WeatherDisplay:10.37,2013-08-06 07:32:00,
2013-08-06 00:37:00,72.0,59.6,29.84,NNW,345,0.0,0.0,65,0.00,CLR,,0.00,WeatherDisplay:10.37,2013-08-06 07:37:00,
2013-08-06 00:42:00,71.8,59.0,29.83,NNW,345,0.0,0.0,64,0.00,CLR,,0.00,WeatherDisplay:10.37,2013-08-06 07:42:00,
2013-08-06 00:47:00,71.6,59.2,29.83,NNW,345,0.0,0.0,65,0.00,CLR,,0.00,WeatherDisplay:10.37,2013-08-06 07:47:00,
2013-08-06 00:52:00,71.4,59.0,29.84,NNW,345,0.0,0.0,65,0.00,CLR,,0.00,WeatherDisplay:10.37,2013-08-06 07:52:00,
2013-08-06 00:57:00,71.1,58.7,29.84,NNW,345,0.0,0.0,65,0.00,CLR,,0.00,WeatherDisplay:10.37,2013-08-06 07:57:00,
2013-08-06 01:02:00,71.1,58.7,29.84,NNW,345,0.0,0.0,65,0.00,CLR,,0.00,WeatherDisplay:10.37,2013-08-06 08:02:00,
2013-08-06 01:07:00,71.0,58.6,29.84,NNW,345,0.0,0.0,65,0.00,CLR,,0.00,WeatherDisplay:10.37,2013-08-06 08:07:00,
2013-08-06 01:12:00,71.2,58.4,29.84,NNW,345,0.0,0.0,64,0.00,CLR,,0.00,WeatherDisplay:10.37,2013-08-06 08:12:00,
2013-08-06 01:17:00,71.3,59.4,29.84,NNW,345,0.0,0.0,66,0.00,CLR,,0.00,WeatherDisplay:10.37,2013-08-06 08:17:00,
2013-08-06 01:22:00,71.1,58.7,29.84,NNW,345,0.0,0.0,65,0.00,CLR,,0.00,WeatherDisplay:10.37,2013-08-06 08:22:00,
2013-08-06 01:27:00,70.9,59.0,29.84,NNW,345,0.0,0.0,66,0.00,CLR,,0.00,WeatherDisplay:10.37,2013-08-06 08:27:00,
2013-08-06 01:32:00,70.5,58.6,29.84,NNW,345,0.0,0.0,66,0.00,CLR,,0.00,WeatherDisplay:10.37,2013-08-06 08:32:00,
2013-08-06 01:37:00,70.2,59.1,29.83,NNW,345,0.0,0.0,68,0.00,CLR,,0.00,WeatherDisplay:10.37,2013-08-06 08:37:00,
2013-08-06 01:42:00,70.0,59.0,29.84,NNW,345,0.0,0.0,68,0.00,CLR,,0.00,WeatherDisplay:10.37,2013-08-06 08:42:00,
2013-08-06 01:47:00,69.8,58.8,29.84,NNW,345,0.0,0.0,68,0.00,CLR,,0.00,WeatherDisplay:10.37,2013-08-06 08:47:00,
2013-08-06 01:52:00,69.6,59.0,29.84,NNW,345,0.0,0.0,69,0.00,CLR,,0.00,WeatherDisplay:10.37,2013-08-06 08:52:00,
2013-08-06 01:57:00,69.4,58.8,29.84,NNW,344,0.0,0.0,69,0.00,CLR,,0.00,WeatherDisplay:10.37,2013-08-06 08:57:00,
2013-08-06 02:02:00,69.2,59.0,29.84,NNW,345,0.0,0.0,70,0.00,CLR,,0.00,WeatherDisplay:10.37,2013-08-06 09:02:00,
2013-08-06 02:07:00,69.1,58.9,29.84,NNW,345,0.0,0.0,70,0.00,CLR,,0.00,WeatherDisplay:10.37,2013-08-06 09:07:00,
2013-08-06 02:12:00,68.8,58.2,29.84,NNW,345,0.0,0.0,69,0.00,CLR,,0.00,WeatherDisplay:10.37,2013-08-06 09:12:00,
2013-08-06 02:17:00,68.5,58.3,29.84,NNW,345,0.0,0.0,70,0.00,CLR,,0.00,WeatherDisplay:10.37,2013-08-06 09:17:00,
2013-08-06 02:22:00,68.3,58.1,29.84,NNW,345,0.0,0.0,70,0.00,CLR,,0.00,WeatherDisplay:10.37,2013-08-06 09:22:00,
2013-08-06 02:27:00,68.2,58.4,29.84,NNW,345,0.0,0.0,71,0.00,CLR,,0.00,WeatherDisplay:10.37,2013-08-06 09:27:00,
2013-08-06 02:32:00,68.0,58.2,29.84,NNW,345,0.0,0.0,71,0.00,CLR,,0.00,WeatherDisplay:10.37,2013-08-06 09:32:00,
2013-08-06 02:37:00,67.8,57.7,29.84,NNW,345,0.0,0.0,70,0.00,CLR,,0.00,WeatherDisplay:10.37,2013-08-06 09:37:00,
2013-08-06 02:42:00,67.6,57.9,29.84,NNW,345,0.0,0.0,71,0.00,CLR,,0.00,WeatherDisplay:10.37,2013-08-06 09:42:00,
2013-08-06 02:47:00,67.5,58.2,29.84,NNW,345,0.0,0.0,72,0.00,CLR,,0.00,WeatherDisplay:10.37,2013-08-06 09:47:00,
2013-08-06 02:52:00,67.2,57.5,29.84,NNW,345,0.0,0.0,71,0.00,CLR,,0.00,WeatherDisplay:10.37,2013-08-06 09:52:00,
2013-08-06 02:57:00,66.9,57.6,29.84,NNW,345,0.0,0.0,72,0.00,CLR,,0.00,WeatherDisplay:10.37,2013-08-06 09:57:00,
2013-08-06 03:02:00,66.7,57.4,29.84,NNW,345,0.0,0.0,72,0.00,CLR,,0.00,WeatherDisplay:10.37,2013-08-06 10:02:00,
2013-08-06 03:07:00,66.5,57.2,29.84,NNW,345,0.0,0.0,72,0.00,CLR,,0.00,WeatherDisplay:10.37,2013-08-06 10:07:00,
2013-08-06 03:12:00,66.4,57.1,29.84,NNW,345,0.0,0.0,72,0.00,CLR,,0.00,WeatherDisplay:10.37,2013-08-06 10:12:00,
2013-08-06 03:17:00,66.4,57.1,29.84,NNW,345,0.0,0.0,72,0.00,CLR,,0.00,WeatherDisplay:10.37,2013-08-06 10:17:00,
2013-08-06 03:22:00,66.3,57.0,29.84,NNW,345,0.0,0.0,72,0.00,CLR,,0.00,WeatherDisplay:10.37,2013-08-06 10:22:00,
2013-08-06 03:27:00,66.3,56.6,29.84,NNW,345,0.0,0.0,71,0.00,CLR,,0.00,WeatherDisplay:10.37,2013-08-06 10:27:00,
2013-08-06 03:32:00,66.1,57.2,29.84,NNW,345,0.0,0.0,73,0.00,CLR,,0.00,WeatherDisplay:10.37,2013-08-06 10:32:00,
2013-08-06 03:37:00,65.8,56.5,29.84,NNW,345,0.0,0.0,72,0.00,CLR,,0.00,WeatherDisplay:10.37,2013-08-06 10:37:00,
2013-08-06 03:42:00,65.5,56.2,29.84,NNW,345,0.0,0.0,72,0.00,CLR,,0.00,WeatherDisplay:10.37,2013-08-06 10:42:00,
2013-08-06 03:47:00,65.2,56.3,29.84,NNW,345,0.0,0.0,73,0.00,CLR,,0.00,WeatherDisplay:10.37,2013-08-06 10:47:00,
2013-08-06 03:52:00,65.0,56.1,29.84,NNW,345,0.0,0.0,73,0.00,CLR,,0.00,WeatherDisplay:10.37,2013-08-06 10:52:00,
2013-08-06 03:57:00,64.7,56.2,29.84,NNW,345,0.0,0.0,74,0.00,CLR,,0.00,WeatherDisplay:10.37,2013-08-06 10:57:00,
2013-08-06 04:02:00,64.4,55.9,29.84,NNW,345,0.0,0.0,74,0.00,CLR,,0.00,WeatherDisplay:10.37,2013-08-06 11:02:00,
2013-08-06 04:07:00,64.1,55.6,29.84,NNW,345,0.0,0.0,74,0.00,CLR,,0.00,WeatherDisplay:10.37,2013-08-06 11:07:00,
2013-08-06 04:12:00,63.9,55.4,29.84,NNW,345,0.0,0.0,74,0.00,CLR,,0.00,WeatherDisplay:10.37,2013-08-06 11:12:00,
2013-08-06 04:17:00,63.9,55.8,29.84,NNW,345,0.0,0.0,75,0.00,CLR,,0.00,WeatherDisplay:10.37,2013-08-06 11:17:00,
2013-08-06 04:22:00,63.9,55.8,29.85,NNW,345,0.0,0.0,75,0.00,CLR,,0.00,WeatherDisplay:10.37,2013-08-06 11:22:00,
2013-08-06 04:27:00,63.7,55.6,29.84,NNW,345,0.0,0.0,75,0.00,CLR,,0.00,WeatherDisplay:10.37,2013-08-06 11:27:00,
2013-08-06 04:32:00,63.7,56.0,29.85,NNW,345,0.0,0.0,76,0.00,CLR,,0.00,WeatherDisplay:10.37,2013-08-06 11:32:00,
2013-08-06 04:37:00,63.7,56.0,29.84,NNW,345,0.0,0.0,76,0.00,CLR,,0.00,WeatherDisplay:10.37,2013-08-06 11:37:00,
2013-08-06 04:42:00,63.7,56.0,29.84,NNW,345,0.0,0.0,76,0.00,CLR,,0.00,WeatherDisplay:10.37,2013-08-06 11:42:00,
2013-08-06 04:47:00,63.7,56.0,29.85,NNW,345,0.0,0.0,76,0.00,CLR,,0.00,WeatherDisplay:10.37,2013-08-06 11:47:00,
2013-08-06 04:52:00,63.7,55.6,29.85,NNW,345,0.0,0.0,75,0.00,CLR,,0.00,WeatherDisplay:10.37,2013-08-06 11:52:00,
2013-08-06 04:57:00,63.8,55.7,29.85,NNW,345,0.0,0.0,75,0.00,CLR,,0.00,WeatherDisplay:10.37,2013-08-06 11:57:00,
2013-08-06 05:02:00,63.8,55.4,29.85,NNW,345,0.0,0.0,74,0.00,CLR,,0.00,WeatherDisplay:10.37,2013-08-06 12:02:00,
2013-08-06 05:07:00,63.7,55.3,29.85,NNW,345,0.0,0.0,74,0.00,CLR,,0.00,WeatherDisplay:10.37,2013-08-06 12:07:00,
2013-08-06 05:12:00,63.7,56.0,29.85,NNW,345,0.0,0.0,76,0.00,CLR,,0.00,WeatherDisplay:10.37,2013-08-06 12:12:00,
2013-08-06 05:17:00,63.8,56.1,29.86,NNW,345,0.0,0.0,76,0.00,CLR,,0.00,WeatherDisplay:10.37,2013-08-06 12:17:00,
2013-08-06 05:22:00,63.9,56.2,29.86,NNW,345,0.0,0.0,76,0.00,CLR,,0.00,WeatherDisplay:10.37,2013-08-06 12:22:00,
2013-08-06 05:27:00,63.8,55.7,29.86,NNW,345,0.0,0.0,75,0.00,CLR,,0.00,WeatherDisplay:10.37,2013-08-06 12:27:00,
2013-08-06 05:32:00,63.8,55.7,29.86,NNW,345,0.0,0.0,75,0.00,CLR,,0.00,WeatherDisplay:10.37,2013-08-06 12:32:00,
2013-08-06 05:37:00,63.7,55.6,29.87,NNW,345,0.0,0.0,75,0.00,CLR,,0.00,WeatherDisplay:10.37,2013-08-06 12:37:00,
2013-08-06 05:42:00,63.7,55.6,29.87,NNW,345,0.0,0.0,75,0.00,CLR,,0.00,WeatherDisplay:10.37,2013-08-06 12:42:00,
2013-08-06 05:47:00,63.5,55.8,29.87,NNW,345,0.0,0.0,76,0.00,CLR,,0.00,WeatherDisplay:10.37,2013-08-06 12:47:00,
2013-08-06 05:52:00,63.4,55.7,29.87,NNW,345,0.0,0.0,76,0.00,CLR,,0.00,WeatherDisplay:10.37,2013-08-06 12:52:00,
2013-08-06 05:57:00,63.3,55.6,29.87,NNW,345,0.0,0.0,76,0.00,CLR,,0.00,WeatherDisplay:10.37,2013-08-06 12:57:00,
2013-08-06 06:02:00,63.3,56.0,29.88,NNW,345,0.0,0.0,77,0.00,CLR,,0.00,WeatherDisplay:10.37,2013-08-06 13:02:00,
2013-08-06 06:07:00,63.3,55.6,29.88,NNW,345,0.0,0.0,76,0.00,CLR,,0.00,WeatherDisplay:10.37,2013-08-06 13:07:00,
2013-08-06 06:12:00,63.3,55.6,29.88,NNW,345,0.0,0.0,76,0.00,CLR,,0.00,WeatherDisplay:10.37,2013-08-06 13:12:00,
2013-08-06 06:17:00,63.3,56.0,29.88,NNW,345,0.0,0.0,77,0.00,CLR,,0.00,WeatherDisplay:10.37,2013-08-06 13:17:00,
2013-08-06 06:22:00,63.4,55.3,29.88,SE,126,0.0,0.0,75,0.00,CLR,,0.00,WeatherDisplay:10.37,2013-08-06 13:22:00,
2013-08-06 06:27:00,63.5,55.4,29.88,SE,125,0.0,0.0,75,0.00,CLR,,0.00,WeatherDisplay:10.37,2013-08-06 13:27:00,
2013-08-06 06:32:00,63.6,55.5,29.89,SE,126,1.2,0.0,75,0.00,CLR,,0.00,WeatherDisplay:10.37,2013-08-06 13:32:00,
2013-08-06 06:37:00,63.7,55.6,29.89,SE,126,0.0,0.0,75,0.00,CLR,,0.00,WeatherDisplay:10.37,2013-08-06 13:37:00,
2013-08-06 06:42:00,63.7,55.6,29.89,SE,126,0.0,0.0,75,0.00,CLR,,0.00,WeatherDisplay:10.37,2013-08-06 13:42:00,
2013-08-06 06:47:00,63.8,55.0,29.89,SE,125,0.0,0.0,73,0.00,CLR,,0.00,WeatherDisplay:10.37,2013-08-06 13:47:00,
2013-08-06 06:52:00,64.0,55.2,29.89,SE,126,0.0,0.0,73,0.00,CLR,,0.00,WeatherDisplay:10.37,2013-08-06 13:52:00,
2013-08-06 06:57:00,64.2,55.4,29.89,SE,125,1.2,0.0,73,0.00,CLR,,0.00,WeatherDisplay:10.37,2013-08-06 13:57:00,
2013-08-06 07:02:00,64.3,55.5,29.89,SE,126,0.0,0.0,73,0.00,CLR,,0.00,WeatherDisplay:10.37,2013-08-06 14:02:00,
2013-08-06 07:07:00,64.6,55.4,29.89,SE,139,0.0,0.1,72,0.00,CLR,,0.00,WeatherDisplay:10.37,2013-08-06 14:07:00,
2013-08-06 07:12:00,64.8,55.2,29.89,SE,140,0.0,0.0,71,0.00,CLR,,0.00,WeatherDisplay:10.37,2013-08-06 14:12:00,
2013-08-06 07:17:00,65.0,55.4,29.90,SE,139,0.0,0.0,71,0.00,CLR,,0.00,WeatherDisplay:10.37,2013-08-06 14:17:00,
2013-08-06 07:22:00,65.2,55.6,29.90,SE,139,0.0,0.1,71,0.00,CLR,,0.00,WeatherDisplay:10.37,2013-08-06 14:22:00,
2013-08-06 07:27:00,65.6,55.9,29.90,WSW,249,0.0,0.0,71,0.00,CLR,,0.00,WeatherDisplay:10.37,2013-08-06 14:27:00,
2013-08-06 07:32:00,65.9,55.8,29.90,WSW,250,0.0,0.0,70,0.00,CLR,,0.00,WeatherDisplay:10.37,2013-08-06 14:32:00,
2013-08-06 07:37:00,66.2,55.7,29.90,WSW,249,0.0,0.0,69,0.00,CLR,,0.00,WeatherDisplay:10.37,2013-08-06 14:37:00,
2013-08-06 07:42:00,66.6,56.1,29.90,WSW,249,1.2,0.0,69,0.00,CLR,,0.00,WeatherDisplay:10.37,2013-08-06 14:42:00,
2013-08-06 07:47:00,66.9,56.4,29.90,WSW,249,1.2,0.0,69,0.00,CLR,,0.00,WeatherDisplay:10.37,2013-08-06 14:47:00,
2013-08-06 07:52:00,67.3,56.0,29.90,West,273,0.0,0.0,67,0.00,CLR,,0.00,WeatherDisplay:10.37,2013-08-06 14:52:00,
2013-08-06 07:57:00,67.7,56.3,29.90,WSW,245,0.0,0.0,67,0.00,CLR,,0.00,WeatherDisplay:10.37,2013-08-06 14:57:00,
2013-08-06 08:02:00,67.9,56.1,29.90,WSW,249,0.0,0.0,66,0.00,CLR,,0.00,WeatherDisplay:10.37,2013-08-06 15:02:00,
2013-08-06 08:07:00,68.3,56.9,29.90,WSW,249,0.0,0.0,67,0.00,CLR,,0.00,WeatherDisplay:10.37,2013-08-06 15:07:00,
2013-08-06 08:12:00,68.6,56.8,29.90,WSW,249,0.0,0.0,66,0.00,CLR,,0.00,WeatherDisplay:10.37,2013-08-06 15:12:00,
2013-08-06 08:17:00,69.0,56.7,29.91,WSW,249,0.0,0.0,65,0.00,CLR,,0.00,WeatherDisplay:10.37,2013-08-06 15:17:00,
2013-08-06 08:22:00,69.5,57.2,29.91,SE,139,0.0,0.1,65,0.00,CLR,,0.00,WeatherDisplay:10.37,2013-08-06 15:22:00,
2013-08-06 08:27:00,69.9,57.2,29.91,SW,225,0.0,0.0,64,0.00,CLR,,0.00,WeatherDisplay:10.37,2013-08-06 15:27:00,
2013-08-06 08:32:00,70.3,57.1,29.91,SE,126,0.0,0.0,63,0.00,CLR,,0.00,WeatherDisplay:10.37,2013-08-06 15:32:00,
2013-08-06 08:37:00,70.6,57.4,29.91,West,267,0.0,0.0,63,0.00,CLR,,0.00,WeatherDisplay:10.37,2013-08-06 15:37:00,
2013-08-06 08:42:00,70.9,57.7,29.91,SW,226,0.0,0.0,63,0.00,CLR,,0.00,WeatherDisplay:10.37,2013-08-06 15:42:00,
2013-08-06 08:47:00,71.3,56.7,29.91,West,267,1.2,1.2,60,0.00,CLR,,0.00,WeatherDisplay:10.37,2013-08-06 15:47:00,
2013-08-06 08:52:00,71.7,57.1,29.91,SE,128,1.2,0.0,60,0.00,CLR,,0.00,WeatherDisplay:10.37,2013-08-06 15:52:00,
2013-08-06 08:57:00,72.1,57.4,29.91,ESE,120,1.2,1.2,60,0.00,CLR,,0.00,WeatherDisplay:10.37,2013-08-06 15:57:00,
2013-08-06 09:02:00,72.5,57.4,29.91,SE,125,1.2,0.0,59,0.00,CLR,,0.00,WeatherDisplay:10.37,2013-08-06 16:02:00,
2013-08-06 09:07:00,72.9,57.3,29.91,SW,218,0.0,0.2,58,0.00,CLR,,0.00,WeatherDisplay:10.37,2013-08-06 16:07:00,
2013-08-06 09:12:00,73.2,57.5,29.91,SE,129,1.2,0.0,58,0.00,CLR,,0.00,WeatherDisplay:10.37,2013-08-06 16:12:00,
2013-08-06 09:17:00,73.6,57.4,29.91,ESE,120,1.2,1.2,57,0.00,CLR,,0.00,WeatherDisplay:10.37,2013-08-06 16:17:00,
2013-08-06 09:22:00,74.0,57.3,29.91,SSW,212,0.0,0.1,56,0.00,CLR,,0.00,WeatherDisplay:10.37,2013-08-06 16:22:00,
2013-08-06 09:27:00,74.3,57.6,29.91,SW,229,0.0,0.0,56,0.00,CLR,,0.00,WeatherDisplay:10.37,2013-08-06 16:27:00,
2013-08-06 09:32:00,74.7,56.9,29.91,SSW,207,2.3,2.3,54,0.00,CLR,,0.00,WeatherDisplay:10.37,2013-08-06 16:32:00,
2013-08-06 09:37:00,74.9,57.6,29.91,South,172,1.2,0.0,55,0.00,CLR,,0.00,WeatherDisplay:10.37,2013-08-06 16:37:00,
2013-08-06 09:42:00,75.3,58.0,29.91,West,264,1.2,1.2,55,0.00,CLR,,0.00,WeatherDisplay:10.37,2013-08-06 16:42:00,
2013-08-06 09:47:00,75.7,58.4,29.91,WSW,257,1.2,0.0,55,0.00,CLR,,0.00,WeatherDisplay:10.37,2013-08-06 16:47:00,
2013-08-06 09:52:00,75.8,57.4,29.91,WNW,289,0.0,0.0,53,0.00,CLR,,0.00,WeatherDisplay:10.37,2013-08-06 16:52:00,
2013-08-06 09:57:00,75.8,57.4,29.91,SW,233,1.2,0.0,53,0.00,CLR,,0.00,WeatherDisplay:10.37,2013-08-06 16:57:00,
2013-08-06 10:02:00,76.0,57.6,29.91,SSW,198,1.2,1.2,53,0.00,CLR,,0.00,WeatherDisplay:10.37,2013-08-06 17:02:00,
2013-08-06 10:07:00,76.2,57.8,29.91,SSW,210,0.0,0.0,53,0.00,CLR,,0.00,WeatherDisplay:10.37,2013-08-06 17:07:00,
2013-08-06 10:12:00,76.5,58.1,29.91,SSW,207,0.0,0.4,53,0.00,CLR,,0.00,WeatherDisplay:10.37,2013-08-06 17:12:00,
2013-08-06 10:17:00,76.8,57.8,29.91,SW,215,0.0,0.0,52,0.00,CLR,,0.00,WeatherDisplay:10.37,2013-08-06 17:17:00,
2013-08-06 10:22:00,77.1,57.6,29.91,South,172,0.0,0.0,51,0.00,CLR,,0.00,WeatherDisplay:10.37,2013-08-06 17:22:00,
2013-08-06 10:27:00,77.4,58.4,29.91,WSW,245,1.0,0.0,52,0.00,CLR,,0.00,WeatherDisplay:10.37,2013-08-06 17:27:00,
2013-08-06 10:32:00,77.8,58.8,29.91,SSW,197,1.2,0.0,52,0.00,CLR,,0.00,WeatherDisplay:10.37,2013-08-06 17:32:00,
2013-08-06 10:37:00,78.2,59.1,29.91,SE,139,1.2,1.2,52,0.00,CLR,,0.00,WeatherDisplay:10.37,2013-08-06 17:37:00,
2013-08-06 10:42:00,78.5,57.7,29.91,SSE,153,0.0,0.1,49,0.00,CLR,,0.00,WeatherDisplay:10.37,2013-08-06 17:42:00,
2013-08-06 10:47:00,78.7,57.9,29.91,West,270,1.2,0.0,49,0.00,CLR,,0.00,WeatherDisplay:10.37,2013-08-06 17:47:00,
2013-08-06 10:52:00,79.0,58.2,29.91,ESE,120,0.0,0.4,49,0.00,CLR,,0.00,WeatherDisplay:10.37,2013-08-06 17:52:00,
2013-08-06 10:57:00,79.5,57.5,29.91,SW,222,0.0,0.1,47,0.00,CLR,,0.00,WeatherDisplay:10.37,2013-08-06 17:57:00,
2013-08-06 11:02:00,79.7,58.3,29.90,SE,135,0.0,0.0,48,0.00,CLR,,0.00,WeatherDisplay:10.37,2013-08-06 18:02:00,
2013-08-06 11:07:00,80.0,57.4,29.91,South,187,1.2,0.0,46,0.00,CLR,,0.00,WeatherDisplay:10.37,2013-08-06 18:07:00,
2013-08-06 11:12:00,80.3,58.2,29.90,East,91,1.0,1.0,47,0.00,CLR,,0.00,WeatherDisplay:10.37,2013-08-06 18:12:00,
2013-08-06 11:17:00,80.7,58.6,29.90,SSW,213,1.2,0.0,47,0.00,CLR,,0.00,WeatherDisplay:10.37,2013-08-06 18:17:00,
2013-08-06 11:22:00,81.0,58.3,29.90,SSW,207,1.2,0.0,46,0.00,CLR,,0.00,WeatherDisplay:10.37,2013-08-06 18:22:00,
2013-08-06 11:27:00,81.5,59.3,29.90,WNW,283,1.2,1.2,47,0.00,CLR,,0.00,WeatherDisplay:10.37,2013-08-06 18:27:00,
2013-08-06 11:32:00,82.3,58.2,29.90,WNW,284,2.3,2.3,44,0.00,CLR,,0.00,WeatherDisplay:10.37,2013-08-06 18:32:00,
2013-08-06 11:37:00,82.7,58.6,29.89,SE,139,0.0,0.0,44,0.00,CLR,,0.00,WeatherDisplay:10.37,2013-08-06 18:37:00,
2013-08-06 11:42:00,83.0,58.2,29.89,WSW,238,1.2,0.0,43,0.00,CLR,,0.00,WeatherDisplay:10.37,2013-08-06 18:42:00,
2013-08-06 11:47:00,83.5,58.6,29.89,WSW,250,0.0,0.0,43,0.00,CLR,,0.00,WeatherDisplay:10.37,2013-08-06 18:47:00,
2013-08-06 11:52:00,84.0,58.4,29.89,South,171,0.0,0.0,42,0.00,CLR,,0.00,WeatherDisplay:10.37,2013-08-06 18:52:00,
2013-08-06 11:57:00,84.6,58.3,29.89,West,271,2.3,2.3,41,0.00,CLR,,0.00,WeatherDisplay:10.37,2013-08-06 18:57:00,
2013-08-06 12:02:00,85.3,57.5,29.89,NW,322,1.2,1.2,39,0.00,CLR,,0.00,WeatherDisplay:10.37,2013-08-06 19:02:00,
2013-08-06 12:07:00,85.8,56.5,29.89,NNE,22,2.3,2.3,37,0.00,CLR,,0.00,WeatherDisplay:10.37,2013-08-06 19:07:00,
2013-08-06 12:12:00,86.0,56.7,29.89,WNW,285,3.0,3.0,37,0.00,CLR,,0.00,WeatherDisplay:10.37,2013-08-06 19:12:00,
2013-08-06 12:17:00,86.3,55.4,29.89,ESE,120,1.2,1.2,35,0.00,CLR,,0.00,WeatherDisplay:10.37,2013-08-06 19:17:00,
2013-08-06 12:22:00,86.9,56.7,29.89,SSW,194,1.2,1.2,36,0.00,CLR,,0.00,WeatherDisplay:10.37,2013-08-06 19:22:00,
2013-08-06 12:27:00,87.6,56.6,29.89,West,260,1.2,1.2,35,0.00,CLR,,0.00,WeatherDisplay:10.37,2013-08-06 19:27:00,
2013-08-06 12:32:00,87.9,56.8,29.89,WSW,240,2.3,2.3,35,0.00,CLR,,0.00,WeatherDisplay:10.37,2013-08-06 19:32:00,
2013-08-06 12:37:00,87.9,56.0,29.88,WNW,283,3.5,3.5,34,0.00,CLR,,0.00,WeatherDisplay:10.37,2013-08-06 19:37:00,
2013-08-06 12:42:00,88.1,55.4,29.88,WNW,288,2.3,2.3,33,0.00,CLR,,0.00,WeatherDisplay:10.37,2013-08-06 19:42:00,
2013-08-06 12:47:00,88.4,55.6,29.88,WSW,249,1.2,1.2,33,0.00,CLR,,0.00,WeatherDisplay:10.37,2013-08-06 19:47:00,
2013-08-06 12:52:00,89.1,56.2,29.88,West,274,2.3,2.3,33,0.00,CLR,,0.00,WeatherDisplay:10.37,2013-08-06 19:52:00,
2013-08-06 12:57:00,89.5,56.6,29.87,WNW,294,3.5,3.5,33,0.00,CLR,,0.00,WeatherDisplay:10.37,2013-08-06 19:57:00,
2013-08-06 13:02:00,89.2,57.2,29.87,WNW,302,3.5,3.5,34,0.00,CLR,,0.00,WeatherDisplay:10.37,2013-08-06 20:02:00,
2013-08-06 13:07:00,89.2,57.2,29.87,West,270,3.5,3.5,34,0.00,CLR,,0.00,WeatherDisplay:10.37,2013-08-06 20:07:00,
2013-08-06 13:12:00,89.5,56.6,29.87,WNW,300,1.2,1.2,33,0.00,CLR,,0.00,WeatherDisplay:10.37,2013-08-06 20:12:00,
2013-08-06 13:17:00,90.0,58.7,29.87,WSW,257,1.2,1.2,35,0.00,CLR,,0.00,WeatherDisplay:10.37,2013-08-06 20:17:00,
2013-08-06 13:22:00,90.8,58.6,29.87,WNW,298,2.3,2.3,34,0.00,CLR,,0.00,WeatherDisplay:10.37,2013-08-06 20:22:00,
2013-08-06 13:27:00,90.9,57.0,29.87,West,270,3.5,3.5,32,0.00,CLR,,0.00,WeatherDisplay:10.37,2013-08-06 20:27:00,
2013-08-06 13:32:00,90.5,57.5,29.87,SW,214,4.6,4.6,33,0.00,CLR,,0.00,WeatherDisplay:10.37,2013-08-06 20:32:00,
2013-08-06 13:37:00,90.4,56.5,29.86,NNW,333,3.5,3.5,32,0.00,CLR,,0.00,WeatherDisplay:10.37,2013-08-06 20:37:00,
2013-08-06 13:42:00,91.0,56.2,29.86,NW,305,3.5,3.5,31,0.00,CLR,,0.00,WeatherDisplay:10.37,2013-08-06 20:42:00,
2013-08-06 13:47:00,91.8,54.1,29.86,SE,131,3.5,3.5,28,0.00,CLR,,0.00,WeatherDisplay:10.37,2013-08-06 20:47:00,
2013-08-06 13:53:00,91.9,55.1,29.86,NNW,341,3.5,3.5,29,0.00,CLR,,0.00,WeatherDisplay:10.37,2013-08-06 20:53:00,
2013-08-06 13:58:00,91.6,53.9,29.86,West,274,4.6,4.6,28,0.00,CLR,,0.00,WeatherDisplay:10.37,2013-08-06 20:58:00,
2013-08-06 14:03:00,92.0,54.2,29.86,SE,129,1.2,1.2,28,0.00,CLR,,0.00,WeatherDisplay:10.37,2013-08-06 21:03:00,
2013-08-06 14:08:00,92.9,56.0,29.85,NW,323,3.5,3.5,29,0.00,CLR,,0.00,WeatherDisplay:10.37,2013-08-06 21:08:00,
2013-08-06 14:13:00,93.2,55.2,29.85,NNW,341,3.5,3.5,28,0.00,CLR,,0.00,WeatherDisplay:10.37,2013-08-06 21:13:00,
2013-08-06 14:18:00,92.5,56.6,29.85,South,173,2.3,2.3,30,0.00,CLR,,0.00,WeatherDisplay:10.37,2013-08-06 21:18:00,
2013-08-06 14:23:00,93.1,55.2,29.85,NW,311,3.5,3.5,28,0.00,CLR,,0.00,WeatherDisplay:10.37,2013-08-06 21:23:00,
2013-08-06 14:28:00,92.8,54.9,29.84,North,360,4.6,4.6,28,0.00,CLR,,0.00,WeatherDisplay:10.37,2013-08-06 21:28:00,
2013-08-06 14:33:00,92.7,51.7,29.85,NW,316,3.5,3.5,25,0.00,CLR,,0.00,WeatherDisplay:10.37,2013-08-06 21:33:00,
2013-08-06 14:38:00,93.4,54.4,29.84,NW,316,4.0,4.0,27,0.00,CLR,,0.00,WeatherDisplay:10.37,2013-08-06 21:38:00,
2013-08-06 14:43:00,94.0,53.9,29.84,North,360,3.5,3.5,26,0.00,CLR,,0.00,WeatherDisplay:10.37,2013-08-06 21:43:00,
2013-08-06 14:48:00,94.1,55.0,29.84,NW,314,4.6,4.6,27,0.00,CLR,,0.00,WeatherDisplay:10.37,2013-08-06 21:48:00,
2013-08-06 14:53:00,93.8,55.8,29.84,SW,221,3.5,3.5,28,0.00,CLR,,0.00,WeatherDisplay:10.37,2013-08-06 21:53:00,
2013-08-06 14:58:00,94.3,54.1,29.84,NE,36,2.3,2.3,26,0.00,CLR,,0.00,WeatherDisplay:10.37,2013-08-06 21:58:00,
2013-08-06 15:03:00,94.8,53.5,29.83,North,354,3.5,3.5,25,0.00,CLR,,0.00,WeatherDisplay:10.37,2013-08-06 22:03:00,
2013-08-06 15:08:00,94.3,53.1,29.83,West,279,3.5,3.5,25,0.00,CLR,,0.00,WeatherDisplay:10.37,2013-08-06 22:08:00,
2013-08-06 15:13:00,94.4,54.2,29.83,NNW,345,3.0,3.0,26,0.00,CLR,,0.00,WeatherDisplay:10.37,2013-08-06 22:13:00,
2013-08-06 15:18:00,94.6,53.3,29.83,WNW,288,3.0,3.0,25,0.00,CLR,,0.00,WeatherDisplay:10.37,2013-08-06 22:18:00,
2013-08-06 15:23:00,95.1,54.8,29.83,NNE,22,3.5,3.5,26,0.00,CLR,,0.00,WeatherDisplay:10.37,2013-08-06 22:23:00,
2013-08-06 15:28:00,94.7,54.5,29.83,NNE,30,3.5,3.5,26,0.00,CLR,,0.00,WeatherDisplay:10.37,2013-08-06 22:28:00,
2013-08-06 15:33:00,95.0,52.6,29.83,North,5,3.5,3.5,24,0.00,CLR,,0.00,WeatherDisplay:10.37,2013-08-06 22:33:00,
2013-08-06 15:38:00,94.8,52.4,29.83,North,354,5.8,5.8,24,0.00,CLR,,0.00,WeatherDisplay:10.37,2013-08-06 22:38:00,
2013-08-06 15:43:00,95.1,53.7,29.83,North,360,3.5,3.5,25,0.00,CLR,,0.00,WeatherDisplay:10.37,2013-08-06 22:43:00,
2013-08-06 15:48:00,95.4,54.0,29.83,SSW,204,3.5,3.5,25,0.00,CLR,,0.00,WeatherDisplay:10.37,2013-08-06 22:48:00,
2013-08-06 15:53:00,95.3,55.0,29.83,NW,322,4.6,4.6,26,0.00,CLR,,0.00,WeatherDisplay:10.37,2013-08-06 22:53:00,
2013-08-06 15:58:00,95.4,54.0,29.82,West,264,3.5,3.5,25,0.00,CLR,,0.00,WeatherDisplay:10.37,2013-08-06 22:58:00,
2013-08-06 16:03:00,95.3,53.9,29.82,ENE,65,4.6,4.6,25,0.00,CLR,,0.00,WeatherDisplay:10.37,2013-08-06 23:03:00,
2013-08-06 16:08:00,95.5,53.0,29.82,SW,226,3.5,3.5,24,0.00,CLR,,0.00,WeatherDisplay:10.37,2013-08-06 23:08:00,
2013-08-06 16:13:00,95.8,54.3,29.82,NNE,30,3.5,3.5,25,0.00,CLR,,0.00,WeatherDisplay:10.37,2013-08-06 23:13:00,
2013-08-06 16:18:00,95.5,54.1,29.82,SW,221,3.5,3.5,25,0.00,CLR,,0.00,WeatherDisplay:10.37,2013-08-06 23:18:00,
2013-08-06 16:23:00,95.7,55.3,29.82,NNE,30,4.6,4.6,26,0.00,CLR,,0.00,WeatherDisplay:10.37,2013-08-06 23:23:00,
2013-08-06 16:28:00,95.6,54.2,29.82,NNW,341,3.5,3.5,25,0.00,CLR,,0.00,WeatherDisplay:10.37,2013-08-06 23:28:00,
2013-08-06 16:33:00,95.4,54.0,29.82,SW,229,3.5,3.5,25,0.00,CLR,,0.00,WeatherDisplay:10.37,2013-08-06 23:33:00,
2013-08-06 16:38:00,95.6,55.2,29.82,SW,225,2.3,2.3,26,0.00,CLR,,0.00,WeatherDisplay:10.37,2013-08-06 23:38:00,
2013-08-06 16:43:00,96.2,54.7,29.81,SW,236,4.6,4.6,25,0.00,CLR,,0.00,WeatherDisplay:10.37,2013-08-06 23:43:00,
2013-08-06 16:48:00,95.7,54.3,29.81,WSW,255,4.0,4.0,25,0.00,CLR,,0.00,WeatherDisplay:10.37,2013-08-06 23:48:00,
2013-08-06 16:53:00,95.7,54.3,29.81,NNE,30,4.0,4.0,25,0.00,CLR,,0.00,WeatherDisplay:10.37,2013-08-06 23:53:00,
2013-08-06 16:58:00,95.2,54.9,29.81,NNW,339,4.6,4.6,26,0.00,CLR,,0.00,WeatherDisplay:10.37,2013-08-06 23:58:00,
2013-08-06 17:03:00,95.5,55.2,29.81,ESE,109,3.5,3.5,26,0.00,CLR,,0.00,WeatherDisplay:10.37,2013-08-07 00:03:00,
2013-08-06 17:08:00,95.5,55.2,29.81,WNW,290,2.3,2.3,26,0.00,CLR,,0.00,WeatherDisplay:10.37,2013-08-07 00:08:00,
2013-08-06 17:13:00,95.5,55.2,29.81,ENE,61,4.6,4.6,26,0.00,CLR,,0.00,WeatherDisplay:10.37,2013-08-07 00:13:00,
2013-08-06 17:18:00,95.9,55.5,29.81,North,354,3.5,3.5,26,0.00,CLR,,0.00,WeatherDisplay:10.37,2013-08-07 00:18:00,
2013-08-06 17:23:00,95.5,55.2,29.81,NNE,25,5.8,5.8,26,0.00,CLR,,0.00,WeatherDisplay:10.37,2013-08-07 00:23:00,
2013-08-06 17:28:00,95.6,55.2,29.81,SSW,204,2.3,2.3,26,0.00,CLR,,0.00,WeatherDisplay:10.37,2013-08-07 00:28:00,
2013-08-06 17:33:00,96.2,55.8,29.81,NNE,23,5.0,5.0,26,0.00,CLR,,0.00,WeatherDisplay:10.37,2013-08-07 00:33:00,
2013-08-06 17:38:00,95.9,55.5,29.81,WSW,257,1.2,1.2,26,0.00,CLR,,0.00,WeatherDisplay:10.37,2013-08-07 00:38:00,
2013-08-06 17:43:00,95.9,54.4,29.81,SSW,201,2.3,2.3,25,0.00,CLR,,0.00,WeatherDisplay:10.37,2013-08-07 00:43:00,
2013-08-06 17:48:00,96.3,55.8,29.81,South,183,1.2,0.0,26,0.00,CLR,,0.00,WeatherDisplay:10.37,2013-08-07 00:48:00,
2013-08-06 17:53:00,97.2,55.5,29.81,NW,316,1.2,1.2,25,0.00,CLR,,0.00,WeatherDisplay:10.37,2013-08-07 00:53:00,
2013-08-06 17:58:00,97.0,55.3,29.80,West,263,2.3,2.3,25,0.00,CLR,,0.00,WeatherDisplay:10.37,2013-08-07 00:58:00,
2013-08-06 18:03:00,96.6,55.0,29.80,West,263,1.2,1.2,25,0.00,CLR,,0.00,WeatherDisplay:10.37,2013-08-07 01:03:00,
2013-08-06 18:08:00,96.2,55.8,29.80,West,267,2.3,2.3,26,0.00,CLR,,0.00,WeatherDisplay:10.37,2013-08-07 01:08:00,
2013-08-06 18:13:00,96.0,55.6,29.80,NNE,12,3.5,3.5,26,0.00,CLR,,0.00,WeatherDisplay:10.37,2013-08-07 01:13:00,
2013-08-06 18:18:00,95.9,55.5,29.80,NNW,328,3.5,3.5,26,0.00,CLR,,0.00,WeatherDisplay:10.37,2013-08-07 01:18:00,
2013-08-06 18:23:00,95.8,54.3,29.80,SSE,148,2.3,2.3,25,0.00,CLR,,0.00,WeatherDisplay:10.37,2013-08-07 01:23:00,
2013-08-06 18:28:00,95.6,54.2,29.80,NNE,22,3.5,3.5,25,0.00,CLR,,0.00,WeatherDisplay:10.37,2013-08-07 01:28:00,
2013-08-06 18:33:00,95.4,55.1,29.80,WNW,283,2.3,2.3,26,0.00,CLR,,0.00,WeatherDisplay:10.37,2013-08-07 01:33:00,
2013-08-06 18:38:00,95.1,54.8,29.80,NNW,333,2.3,2.3,26,0.00,CLR,,0.00,WeatherDisplay:10.37,2013-08-07 01:38:00,
2013-08-06 18:43:00,94.8,54.6,29.80,NNW,345,2.3,2.3,26,0.00,CLR,,0.00,WeatherDisplay:10.37,2013-08-07 01:43:00,
2013-08-06 18:48:00,94.5,53.2,29.80,NNW,339,2.3,2.3,25,0.00,CLR,,0.00,WeatherDisplay:10.37,2013-08-07 01:48:00,
2013-08-06 18:53:00,94.2,53.0,29.80,NNW,345,1.2,1.2,25,0.00,CLR,,0.00,WeatherDisplay:10.37,2013-08-07 01:53:00,
2013-08-06 18:58:00,93.9,50.5,29.80,North,360,2.3,2.3,23,0.00,CLR,,0.00,WeatherDisplay:10.37,2013-08-07 01:58:00,
2013-08-06 19:03:00,93.7,52.6,29.80,WNW,297,0.0,0.0,25,0.00,CLR,,0.00,WeatherDisplay:10.37,2013-08-07 02:03:00,
2013-08-06 19:08:00,93.7,51.5,29.81,NNW,345,1.2,0.0,24,0.00,CLR,,0.00,WeatherDisplay:10.37,2013-08-07 02:08:00,
2013-08-06 19:13:00,93.3,52.2,29.81,NW,322,2.3,2.3,25,0.00,CLR,,0.00,WeatherDisplay:10.37,2013-08-07 02:13:00,
2013-08-06 19:18:00,92.5,51.6,29.81,NW,322,1.0,1.0,25,0.00,CLR,,0.00,WeatherDisplay:10.37,2013-08-07 02:18:00,
2013-08-06 19:23:00,91.7,50.9,29.81,WNW,294,1.2,0.0,25,0.00,CLR,,0.00,WeatherDisplay:10.37,2013-08-07 02:23:00,
2013-08-06 19:28:00,91.1,52.5,29.81,NW,306,0.0,0.0,27,0.00,CLR,,0.00,WeatherDisplay:10.37,2013-08-07 02:28:00,
2013-08-06 19:33:00,90.5,50.9,29.81,NNW,339,1.2,1.2,26,0.00,CLR,,0.00,WeatherDisplay:10.37,2013-08-07 02:33:00,
2013-08-06 19:38:00,90.0,51.5,29.81,NNW,335,1.2,0.0,27,0.00,CLR,,0.00,WeatherDisplay:10.37,2013-08-07 02:38:00,
2013-08-06 19:43:00,89.6,52.2,29.81,NNW,335,1.2,0.0,28,0.00,CLR,,0.00,WeatherDisplay:10.37,2013-08-07 02:43:00,
2013-08-06 19:48:00,89.1,51.7,29.81,NNW,335,1.2,0.0,28,0.00,CLR,,0.00,WeatherDisplay:10.37,2013-08-07 02:48:00,
2013-08-06 19:53:00,88.5,52.2,29.81,NNW,335,0.0,0.0,29,0.00,CLR,,0.00,WeatherDisplay:10.37,2013-08-07 02:53:00,
2013-08-06 19:58:00,88.0,52.7,29.82,NNW,336,0.0,0.0,30,0.00,CLR,,0.00,WeatherDisplay:10.37,2013-08-07 02:58:00,
2013-08-06 20:03:00,87.4,53.9,29.82,NNW,335,0.0,0.0,32,0.00,CLR,,0.00,WeatherDisplay:10.37,2013-08-07 03:03:00,
2013-08-06 20:08:00,86.8,54.2,29.82,NNW,335,0.0,0.0,33,0.00,CLR,,0.00,WeatherDisplay:10.37,2013-08-07 03:08:00,
2013-08-06 20:13:00,86.0,54.4,29.82,NNW,336,0.0,0.0,34,0.00,CLR,,0.00,WeatherDisplay:10.37,2013-08-07 03:13:00,
2013-08-06 20:18:00,85.5,54.7,29.82,NNW,335,0.0,0.0,35,0.00,CLR,,0.00,WeatherDisplay:10.37,2013-08-07 03:18:00,
2013-08-06 20:23:00,84.9,55.7,29.82,NNW,336,0.0,0.0,37,0.00,CLR,,0.00,WeatherDisplay:10.37,2013-08-07 03:23:00,
2013-08-06 20:28:00,84.3,55.9,29.82,NNW,336,0.0,0.0,38,0.00,CLR,,0.00,WeatherDisplay:10.37,2013-08-07 03:28:00,
2013-08-06 20:33:00,83.8,56.2,29.83,NNW,335,0.0,0.0,39,0.00,CLR,,0.00,WeatherDisplay:10.37,2013-08-07 03:33:00,
2013-08-06 20:38:00,83.4,56.5,29.83,NNW,339,0.0,0.0,40,0.00,CLR,,0.00,WeatherDisplay:10.37,2013-08-07 03:38:00,
2013-08-06 20:43:00,82.9,56.8,29.83,NNW,339,0.0,0.0,41,0.00,CLR,,0.00,WeatherDisplay:10.37,2013-08-07 03:43:00,
2013-08-06 20:48:00,82.5,57.1,29.83,SSW,193,0.0,0.0,42,0.00,CLR,,0.00,WeatherDisplay:10.37,2013-08-07 03:48:00,
2013-08-06 20:53:00,82.1,57.4,29.84,SSW,193,0.0,0.0,43,0.00,CLR,,0.00,WeatherDisplay:10.37,2013-08-07 03:53:00,
2013-08-06 20:58:00,81.7,57.7,29.84,SSW,193,0.0,0.0,44,0.00,CLR,,0.00,WeatherDisplay:10.37,2013-08-07 03:58:00,
2013-08-06 21:01:00,81.6,57.6,29.84,SSW,193,0.0,0.0,44,0.00,CLR,,0.00,WeatherDisplay:10.37,2013-08-07 04:01:00,
2013-08-06 21:02:00,81.6,57.6,29.84,WSW,243,1.2,1.2,44,0.00,CLR,,0.00,WeatherDisplay:10.37,2013-08-07 04:02:00,
2013-08-06 21:07:00,81.4,57.4,29.84,WNW,290,0.0,0.0,44,0.00,CLR,,0.00,WeatherDisplay:10.37,2013-08-07 04:07:00,
2013-08-06 21:12:00,81.3,57.9,29.84,WNW,302,0.0,0.0,45,0.00,CLR,,0.00,WeatherDisplay:10.37,2013-08-07 04:12:00,
2013-08-06 21:17:00,81.1,57.7,29.85,WNW,302,0.0,0.0,45,0.00,CLR,,0.00,WeatherDisplay:10.37,2013-08-07 04:17:00,
2013-08-06 21:22:00,80.9,57.6,29.85,WNW,302,0.0,0.0,45,0.00,CLR,,0.00,WeatherDisplay:10.37,2013-08-07 04:22:00,
2013-08-06 21:27:00,80.6,59.1,29.85,WNW,302,0.0,0.0,48,0.00,CLR,,0.00,WeatherDisplay:10.37,2013-08-07 04:27:00,
2013-08-06 21:32:00,80.2,58.1,29.85,North,356,0.0,0.0,47,0.00,CLR,,0.00,WeatherDisplay:10.37,2013-08-07 04:32:00,
2013-08-06 21:37:00,80.0,58.0,29.86,North,356,0.0,0.0,47,0.00,CLR,,0.00,WeatherDisplay:10.37,2013-08-07 04:37:00,
2013-08-06 21:42:00,79.8,57.2,29.86,North,356,0.0,0.0,46,0.00,CLR,,0.00,WeatherDisplay:10.37,2013-08-07 04:42:00,
2013-08-06 21:47:00,79.5,57.5,29.86,North,356,0.0,0.0,47,0.00,CLR,,0.00,WeatherDisplay:10.37,2013-08-07 04:47:00,
2013-08-06 21:52:00,79.2,58.4,29.86,North,356,0.0,0.0,49,0.00,CLR,,0.00,WeatherDisplay:10.37,2013-08-07 04:52:00,
2013-08-06 21:57:00,78.8,58.0,29.87,North,356,0.0,0.0,49,0.00,CLR,,0.00,WeatherDisplay:10.37,2013-08-07 04:57:00,
2013-08-06 22:02:00,78.3,57.6,29.87,North,356,0.0,0.0,49,0.00,CLR,,0.00,WeatherDisplay:10.37,2013-08-07 05:02:00,
2013-08-06 22:07:00,78.1,57.9,29.87,North,356,0.0,0.0,50,0.00,CLR,,0.00,WeatherDisplay:10.37,2013-08-07 05:07:00,
2013-08-06 22:12:00,77.9,57.8,29.87,North,356,0.0,0.0,50,0.00,CLR,,0.00,WeatherDisplay:10.37,2013-08-07 05:12:00,
2013-08-06 22:17:00,77.6,58.0,29.87,North,356,0.0,0.0,51,0.00,CLR,,0.00,WeatherDisplay:10.37,2013-08-07 05:17:00,
2013-08-06 22:22:00,77.2,57.1,29.87,North,356,0.0,0.0,50,0.00,CLR,,0.00,WeatherDisplay:10.37,2013-08-07 05:22:00,
2013-08-06 22:27:00,77.2,57.1,29.87,NNW,343,0.0,0.0,50,0.00,CLR,,0.00,WeatherDisplay:10.37,2013-08-07 05:27:00,
2013-08-06 22:32:00,77.2,57.7,29.88,NNW,342,0.0,0.0,51,0.00,CLR,,0.00,WeatherDisplay:10.37,2013-08-07 05:32:00,
2013-08-06 22:37:00,77.1,57.6,29.88,NNW,343,0.0,0.0,51,0.00,CLR,,0.00,WeatherDisplay:10.37,2013-08-07 05:37:00,
2013-08-06 22:42:00,76.8,58.4,29.88,NNW,342,0.0,0.0,53,0.00,CLR,,0.00,WeatherDisplay:10.37,2013-08-07 05:42:00,
2013-08-06 22:47:00,76.3,57.4,29.88,NNW,342,0.0,0.0,52,0.00,CLR,,0.00,WeatherDisplay:10.37,2013-08-07 05:47:00,
2013-08-06 22:52:00,76.0,58.7,29.88,NNW,343,0.0,0.0,55,0.00,CLR,,0.00,WeatherDisplay:10.37,2013-08-07 05:52:00,
2013-08-06 22:57:00,75.6,58.3,29.88,NNW,342,0.0,0.0,55,0.00,CLR,,0.00,WeatherDisplay:10.37,2013-08-07 05:57:00,
2013-08-06 23:02:00,75.2,57.4,29.89,NNW,345,1.2,0.0,54,0.00,CLR,,0.00,WeatherDisplay:10.37,2013-08-07 06:02:00,
2013-08-06 23:07:00,75.4,56.0,29.89,NNW,345,0.0,0.0,51,0.00,CLR,,0.00,WeatherDisplay:10.37,2013-08-07 06:07:00,
2013-08-06 23:12:00,75.5,54.4,29.89,NNW,345,0.0,0.0,48,0.00,CLR,,0.00,WeatherDisplay:10.37,2013-08-07 06:12:00,
2013-08-06 23:17:00,75.3,54.3,29.89,NNW,345,0.0,0.0,48,0.00,CLR,,0.00,WeatherDisplay:10.37,2013-08-07 06:17:00,
2013-08-06 23:22:00,75.0,54.0,29.89,NNW,344,0.0,0.0,48,0.00,CLR,,0.00,WeatherDisplay:10.37,2013-08-07 06:22:00,
2013-08-06 23:27:00,74.6,54.2,29.89,NNW,345,0.0,0.0,49,0.00,CLR,,0.00,WeatherDisplay:10.37,2013-08-07 06:27:00,
2013-08-06 23:32:00,74.7,53.7,29.89,NNW,345,0.0,0.0,48,0.00,CLR,,0.00,WeatherDisplay:10.37,2013-08-07 06:32:00,
2013-08-06 23:37:00,74.6,54.2,29.90,NNW,345,0.0,0.0,49,0.00,CLR,,0.00,WeatherDisplay:10.37,2013-08-07 06:37:00,
2013-08-06 23:42:00,74.2,52.7,29.90,NNW,345,0.0,0.0,47,0.00,CLR,,0.00,WeatherDisplay:10.37,2013-08-07 06:42:00,
2013-08-06 23:47:00,73.9,55.2,29.90,NNW,345,0.0,0.0,52,0.00,CLR,,0.00,WeatherDisplay:10.37,2013-08-07 06:47:00,
2013-08-06 23:52:00,73.6,54.9,29.90,NNW,345,0.0,0.0,52,0.00,CLR,,0.00,WeatherDisplay:10.37,2013-08-07 06:52:00,
2013-08-06 23:57:00,73.2,52.3,29.90,NNW,345,0.0,0.0,48,0.00,CLR,,0.00,WeatherDisplay:10.37,2013-08-07 06:57:00,